METEOR 2-5 DEB, 38271

Orbit data source: Space-Track

METEOR 2-5 DEB, 38271 is space debris in LEO originally from a launch on Wed, 31 Oct 1979 UTC launched from the Plesetsk Missile And Space Complex (PKMTR). Debris objects in space refer to the collection of defunct objects orbiting the Earth. Examples of debris include non-operational satellites, rocket bodies, and fragments generated from explosions, collisions, or faulty payload assembly.

Loading next visibility...
Identifier
38271, 1979-095BR
Orbit
LEO
Country
Flag of CISCIS
Related business
Manufacturer
Unknown
Mission
Spacecraft
Bus & Motor
Unknown
Mass
Unknown
Launch date (UTC)
1979-10-31 (46 years ago)
Launch vehicle
Unknown
Launch site
Plesetsk Missile And Space Complex (PKMTR)
Object type
Payload
Rocket body
Debris
Shape & HBR
Unknown shape, 0.1 m
Radar Cross Section
Small (<0.1 m²)

Expand to show TLE details & history
Last TLE update: 1 day ago

TLE from 1 day ago
0 METEOR 2-5 DEB
1 38271U 79095BR  25307.87260670  .00007474  00000-0  26363-2 0  9998
2 38271  81.2042   4.6193 0024660 229.8871 130.0153 14.34510232727631
Epoch: 2025-11-03T20:56Z
TLE epoch observation values (Epoch: 2025-11-03T20:56:33.218Z)
Latitude
0.00001°
Longitude
7.11315°
Altitude
790.998 km
Speed
7.452 km/s
True Right ascension
00h 18m 28s
True Declination
0° 00' 00"
Sunlit
Object was in full shadow at epoch
Visualization orbit readout
Latitude
Unknown
Longitude
Unknown
Altitude
Unknown
Speed
Unknown
Apparent Right ascension
Unknown
Apparent Declination
Unknown
Sunlit
N/A
Visualization observer readout
Local Sidereal Time
19:43:14
Azimuth
Unknown
Elevation
Unknown
Doppler factor
Unknown
Orbital elements
Apogee altitude
791.475 km
Perigee altitude
756.201 km
Semi-major axis
7,151.975 km
Eccentricity
0.00247
Inclination
81.2042°
RAAN
4.6193°
Arg. of periapsis
229.8871°
True anomaly
130.23129°
Mean anomaly
130.0153°
Eccentric anomaly
130.12334°
Mean motion
3.58843 °/min
Orbital period
100.32 mins
BSTAR
0.0026363
Loading maneuver chart data...
Computing Atmospheric mass density...

Documentation

Showing up to 5 results
|